Погода в Кан-Пастилье

Испания     39°32′18″N   2°42′52″E
темп.,
°C
ветер,
м/с
пор.,
м/с
влажн.,
%
обл.,
%
осадки,
мм/ч
давл.,
гПа
погр.,
м
8 марта, пн
пн801:00+12св4784100 0.0 1014338
04:00+11св5988100 0.3 1013375
07:00+11всв61089100 0.6 1012488
10:00+11св71187100 1.1 1013515
13:00+12ссв4689100 1.9 1013403
16:00+12ссв5887100 0.8 1012448
19:00+11ссв4789100 1.5 1012390
22:00+10с4790100 1.5 1014376
9 марта, вт
вт901:00+10ссв6118699 2.3 1014466
04:00+10с4788100 0.3 1014409
07:00+9с368495 0.3 1015246
10:00+12ссв247094 0.0 1017748
13:00+15св785994 0.5 10181373
16:00+14св566374 0.3 1018980
19:00+10ссв128087 0.4 1018108
22:00+8св228528 0.0 102051
10 марта, ср
ср1001:00+8ссз118415 0.0 102139
04:00+7ссз22880 0.0 102058
07:00+7ссз12902 0.2 102153
10:00+13з23739 0.3 1023494
13:00+15зюз566617 0.4 1024960
16:00+14зюз566710 0.1 1023826
19:00+11зюз34856 0.1 1024148
22:00+9зсз12850 0.0 102691
11 марта, чт
чт1101:00+9зсз23850 0.0 1026140
04:00+9з34860 0.0 1025165
07:00+9зсз23890 0.0 1025164
10:00+15юз67778 0.0 1026687
13:00+16юз79724 0.0 1025747
16:00+15юз79750 0.0 1023704
19:00+13юз489234 0.0 1022260
22:00+12юз4892100 0.0 1023230
12 марта, пт
пт1201:00+12юз479278 0.0 1022168
04:00+12юз479113 0.0 1020198
07:00+12зюз46907 0.0 1019146
10:00+16юз447736 0.0 1020435
13:00+17ююз557450 0.0 1020462
16:00+16юз437686 0.0 1017376
19:00+13ю119191 0.0 101731
22:00+11св349299 0.0 101863